User: anonymous   Login
Location: ??????
(42.0089°N, 44.3281°E)
Time: 23:13:04
(UTC+00:00)
Language:

SWARM A - Orbit

View from above orbital plane
View from above orbital plane
View from above satellite
View from above satellite

Ground track
Ground track

The orbit data is extracted from the following two-line orbital elements,

1 39452U 13067B   22020.43930361  .00004752  00000-0  93833-4 0  9993
2 39452  87.3591 278.5568 0002364  88.3293 271.8237 15.46851047459062
Epoch (UTC): 20 January 2022 10:32:35
Eccentricity: 0.0002364
inclination: 87.3591°
perigee height: 424 km
apogee height: 427 km
right ascension of ascending node: 278.5568°
argument of perigee: 88.3293°
revolutions per day: 15.46851047
mean anomaly at epoch: 271.8237°
orbit number at epoch: 45906

The dashed part of the orbit path shows where the satellite is in the earth's shadow,  

DLR